Home   Weather   Salt Lake City   Past weeks

Flag for USA Past Weather in Salt Lake City, Utah, USA — Yesterday and Last 2 Weeks

Now
30 °F

Passing clouds.


Feels Like: 26 °F
Forecast: 20 / 31 °F
Wind: 3 mph from East

Location: Salt Lake City International Airport

Current Time: Dec 5, 2016 at 8:04:32 pm

Latest Report: Dec 5, 2016 at 6:54 pm


Visibility: 10 mi

Pressure: 30.06 "Hg (25.49 "Hg at 1312m altitude)

Humidity: 41%

Dew Point: 9 °F

Location of Salt Lake CityLocation

Past Weather in Salt Lake City — Graph

°F

Salt Lake City Temperature Yesterday

Maximum temperature yesterday: 44 °F (at 10:54 pm)
Minimum temperature yesterday: 27 °F (at 6:54 am)
Average temperature yesterday: 36 °F

High & Low Weather Summary for the Past Weeks

 TemperatureHumidityPressure
High58 °F (Nov 20, 6:54 pm)96% (Nov 23, 8:54 pm)30.50 "Hg (Nov 23, 8:54 pm)
Low25 °F (Nov 29, 6:54 am)20% (Nov 26, 1:54 pm)29.49 "Hg (Nov 27, 2:54 am)
Average37 °F67%30.05 "Hg
* Reported Nov 20 6:54 pm — Dec 5 6:54 pm, Salt Lake City, Weather by CustomWeather, © 2016

Note: Actual official high and low records may vary slightly from our data, if they occured in-between our weather recording intervals... More about our weather records

Advertising

Salt Lake City Weather History for the Previous 24 Hours

Scroll right to see more
 ConditionsComfort  
Time TempWeatherWind HumidityBarometerVisibility
6:54 pm
Mon, Dec 5
30 °FPassing clouds.3 mph41%30.06 "Hg10 mi
5:54 pm30 °FPassing clouds.No wind43%30.07 "Hg10 mi
4:54 pm30 °FPassing clouds.3 mph40%30.06 "Hg10 mi
3:54 pm31 °FPassing clouds.5 mph38%30.06 "Hg10 mi
2:54 pm33 °FPassing clouds.7 mph35%30.05 "Hg10 mi
1:54 pm33 °FPassing clouds.8 mph33%30.04 "Hg10 mi
12:54 pm33 °FScattered clouds.9 mph36%30.03 "Hg10 mi
11:54 am32 °FScattered clouds.14 mph38%30.06 "Hg10 mi
10:54 am32 °FScattered clouds.17 mph41%30.06 "Hg10 mi
9:54 am31 °FPartly sunny.15 mph52%30.07 "Hg10 mi
8:54 am31 °FPartly sunny.14 mph47%30.01 "Hg10 mi
7:54 am31 °FBroken clouds.10 mph52%29.99 "Hg10 mi
6:54 am32 °FMostly cloudy.7 mph45%30.01 "Hg10 mi
5:54 am32 °FLight snow. Mostly cloudy.3 mph64%29.98 "Hg5 mi
4:54 am34 °FOvercast.13 mph67%29.94 "Hg9 mi
3:54 am36 °FOvercast.30 mph70%29.85 "Hg10 mi
2:54 am40 °FOvercast.15 mph60%29.78 "Hg10 mi
1:54 am44 °FMostly cloudy.5 mph45%29.72 "Hg10 mi
12:54 am48 °FMostly cloudy.12 mph37%29.72 "Hg10 mi
11:54 pm
Sun, Dec 4
44 °FOvercast.3 mph43%29.74 "Hg10 mi
10:54 pm44 °FOvercast.8 mph41%29.76 "Hg10 mi
9:54 pm43 °FMostly cloudy.No wind43%29.79 "Hg10 mi
8:54 pm41 °FOvercast.5 mph45%29.80 "Hg10 mi
Weather by CustomWeather, © 2016

See weather overviewHow to use our weather pages